カタログに戻る

CZ-6A DEB

運用中SSO
NORAD 54331·DEBRIS·🇨🇳 China

打ち上げ Nov 11, 2022 から Taiyuan Satellite Launch Center

Loading…

次のパス (今後24時間)

TLE

最新Source: Space-Track

元期: Sep 14, 2026, 09:07 UTC

1 54331U 22151CA  26257.38023498  .00000448  00000-0  33649-3 0  9990
2 54331  98.9163 224.6456 0120190 191.0705 168.7809 13.96149629194877

AllMySatでCZ-6A DEBをリアルタイム追跡

Download on the App Store